Terug naar catalogus

SATURNIN-1

ActiefWeerSSO
NORAD 62615·PAYLOAD·🇺🇸 United States

Gelanceerd Jan 14, 2025 vanaf Vandenberg Space Force Base

Loading…

Volgende Passages (komende 24 uur)

TLE

VersSource: Space-Track

Epoch: Sep 14, 2026, 16:52 UTC

1 62615U 25009G   26257.70319389  .00005202  00000-0  20050-3 0  9997
2 62615  97.3884 336.7109 0006480  26.9772 333.1803 15.26748612 92454

Volg SATURNIN-1 in realtime met AllMySat

Download on the App Store